N907SP KEUG-KSFO

Flight info

Callsign N907SP
Flight time 1h 13m
Altitude 45000
Route RBG MLBEC BDEGA4
Aircraft C750/M-SBDE3FGHRWXY/S

Departure

Time 2026-04-22 03:09
Airport Eugene Airport (KEUG)

Arrival

Time 2026-04-22 04:23
Airport San Francisco International Airport (KSFO)
Time Latitude Longitude Altitude Speed Heading
2026-04-22 02:47 44.12454 -123.21063 368 ft 0 kts 306°
2026-04-22 03:01 44.12455 -123.21063 368 ft 0 kts 304°
2026-04-22 03:01 44.12474 -123.21074 367 ft 5 kts
2026-04-22 03:01 44.12507 -123.21059 367 ft 5 kts 21°
2026-04-22 03:02 44.12544 -123.21033 367 ft 8 kts 28°
2026-04-22 03:02 44.12593 -123.21043 367 ft 7 kts 292°
2026-04-22 03:02 44.12597 -123.21106 367 ft 6 kts 270°
2026-04-22 03:02 44.12625 -123.21132 367 ft 8 kts 334°
2026-04-22 03:03 44.12635 -123.21203 368 ft 10 kts 270°
2026-04-22 03:03 44.12634 -123.21360 368 ft 21 kts 270°
2026-04-22 03:03 44.12633 -123.21462 368 ft 10 kts 270°
2026-04-22 03:03 44.12632 -123.21575 369 ft 12 kts 268°
2026-04-22 03:04 44.12637 -123.21690 368 ft 12 kts 301°
2026-04-22 03:04 44.12724 -123.21713 366 ft 15 kts
2026-04-22 03:04 44.12842 -123.21716 366 ft 20 kts 360°
2026-04-22 03:04 44.12994 -123.21718 367 ft 23 kts 359°
2026-04-22 03:05 44.13154 -123.21720 366 ft 23 kts 358°
2026-04-22 03:05 44.13307 -123.21722 368 ft 21 kts 359°
2026-04-22 03:05 44.13443 -123.21725 368 ft 16 kts 359°
2026-04-22 03:05 44.13528 -123.21739 369 ft 8 kts 317°
2026-04-22 03:06 44.13536 -123.21797 370 ft 4 kts 269°
2026-04-22 03:06 44.13535 -123.21802 370 ft 0 kts 269°
2026-04-22 03:08 44.13535 -123.21814 370 ft 5 kts 269°
2026-04-22 03:08 44.13523 -123.21893 370 ft 12 kts 226°
2026-04-22 03:08 44.13426 -123.21915 370 ft 18 kts 179°
2026-04-22 03:08 44.13211 -123.21912 371 ft 65 kts 179°
2026-04-22 03:09 44.12408 -123.21901 393 ft 147 kts 182°
2026-04-22 03:09 44.11276 -123.21855 748 ft 179 kts 180°
2026-04-22 03:09 44.09919 -123.21772 1168 ft 205 kts 178°
2026-04-22 03:09 44.08447 -123.21682 1623 ft 215 kts 179°
2026-04-22 03:10 44.06950 -123.21570 2095 ft 215 kts 179°
2026-04-22 03:10 44.05443 -123.21454 2544 ft 218 kts 178°
2026-04-22 03:10 44.03928 -123.21353 2994 ft 221 kts 178°
2026-04-22 03:10 44.02374 -123.21246 3440 ft 224 kts 179°
2026-04-22 03:11 44.00822 -123.21129 3883 ft 223 kts 178°
2026-04-22 03:11 43.99278 -123.21005 4543 ft 225 kts 178°
2026-04-22 03:11 43.97702 -123.20881 5220 ft 231 kts 178°
2026-04-22 03:11 43.96115 -123.20574 5806 ft 235 kts 159°
2026-04-22 03:12 43.94936 -123.19073 6346 ft 237 kts 117°
2026-04-22 03:12 43.92856 -123.15859 7501 ft 234 kts 171°
2026-04-22 03:12 43.91300 -123.16288 8068 ft 234 kts 212°
2026-04-22 03:13 43.90092 -123.17723 8809 ft 231 kts 224°
2026-04-22 03:13 43.88854 -123.19115 9560 ft 235 kts 216°
2026-04-22 03:13 43.87419 -123.20258 10264 ft 244 kts 207°
2026-04-22 03:13 43.85760 -123.21013 10935 ft 259 kts 193°
2026-04-22 03:14 43.83934 -123.21352 11621 ft 270 kts 187°
2026-04-22 03:14 43.82029 -123.21645 12330 ft 281 kts 189°
2026-04-22 03:14 43.80064 -123.22074 13044 ft 290 kts 191°
2026-04-22 03:14 43.78073 -123.22541 13961 ft 291 kts 190°
2026-04-22 03:15 43.76074 -123.22968 14824 ft 291 kts 189°
2026-04-22 03:15 43.74068 -123.23382 15689 ft 292 kts 189°
2026-04-22 03:15 43.72023 -123.23819 16204 ft 307 kts 189°
2026-04-22 03:15 43.69815 -123.24298 16252 ft 335 kts 189°
2026-04-22 03:16 43.67419 -123.24811 16259 ft 360 kts 189°
2026-04-22 03:16 43.64867 -123.25353 16279 ft 382 kts 189°
2026-04-22 03:16 43.62211 -123.25918 16822 ft 387 kts 189°
2026-04-22 03:16 43.59540 -123.26490 17566 ft 389 kts 189°
2026-04-22 03:17 43.56847 -123.27061 18208 ft 393 kts 188°
2026-04-22 03:17 43.54134 -123.27635 18802 ft 396 kts 188°
2026-04-22 03:17 43.51400 -123.28216 19439 ft 398 kts 188°
2026-04-22 03:17 43.48653 -123.28803 20062 ft 400 kts 188°
2026-04-22 03:18 43.45896 -123.29388 20663 ft 403 kts 188°
2026-04-22 03:18 43.43111 -123.29977 21264 ft 406 kts 187°
2026-04-22 03:18 43.40341 -123.30562 21792 ft 410 kts 188°
2026-04-22 03:18 43.37504 -123.31163 22362 ft 413 kts 187°
2026-04-22 03:19 43.34655 -123.31767 22924 ft 416 kts 187°
2026-04-22 03:19 43.31787 -123.32370 23495 ft 418 kts 187°
2026-04-22 03:19 43.28902 -123.32976 23940 ft 421 kts 187°
2026-04-22 03:19 43.25995 -123.33593 24420 ft 424 kts 187°
2026-04-22 03:20 43.23066 -123.34211 24873 ft 427 kts 187°
2026-04-22 03:20 43.20120 -123.34823 25341 ft 429 kts 187°
2026-04-22 03:20 43.17153 -123.35273 25739 ft 432 kts 186°
2026-04-22 03:20 43.14184 -123.36039 26245 ft 435 kts 192°
2026-04-22 03:21 43.11263 -123.37217 26691 ft 440 kts 197°
2026-04-22 03:21 43.08412 -123.38806 27154 ft 445 kts 202°
2026-04-22 03:21 43.05689 -123.40767 27614 ft 450 kts 207°
2026-04-22 03:21 43.03043 -123.43136 28088 ft 454 kts 212°
2026-04-22 03:22 43.00237 -123.45056 28391 ft 453 kts 197°
2026-04-22 03:22 42.97199 -123.46214 28900 ft 453 kts 191°
2026-04-22 03:22 42.94137 -123.46822 30130 ft 430 kts 184°
2026-04-22 03:22 42.91248 -123.46920 31497 ft 401 kts 178°
2026-04-22 03:23 42.88561 -123.46600 32943 ft 373 kts 173°
2026-04-22 03:23 42.86066 -123.46218 34375 ft 346 kts 174°
2026-04-22 03:23 42.83760 -123.45919 35615 ft 320 kts 175°
2026-04-22 03:23 42.81578 -123.45647 36373 ft 315 kts 176°
2026-04-22 03:24 42.79396 -123.45355 36674 ft 323 kts 175°
2026-04-22 03:24 42.77147 -123.45044 37128 ft 326 kts 175°
2026-04-22 03:24 42.74881 -123.44740 37553 ft 329 kts 176°
2026-04-22 03:24 42.72581 -123.44436 37961 ft 333 kts 176°
2026-04-22 03:25 42.70255 -123.44126 38365 ft 338 kts 176°
2026-04-22 03:25 42.67907 -123.43811 38736 ft 342 kts 176°
2026-04-22 03:25 42.65526 -123.43492 39100 ft 344 kts 176°
2026-04-22 03:25 42.63134 -123.43174 39462 ft 347 kts 176°
2026-04-22 03:26 42.60720 -123.42852 39821 ft 349 kts 176°
2026-04-22 03:26 42.58294 -123.42529 40177 ft 352 kts 176°
2026-04-22 03:26 42.55848 -123.42204 40531 ft 355 kts 176°
2026-04-22 03:26 42.53374 -123.41875 40840 ft 359 kts 176°
2026-04-22 03:27 42.50876 -123.41544 41183 ft 362 kts 176°
2026-04-22 03:27 42.48444 -123.41217 42201 ft 337 kts 176°
2026-04-22 03:27 42.46174 -123.40912 43036 ft 325 kts 176°
2026-04-22 03:27 42.43903 -123.40618 43234 ft 331 kts 177°
2026-04-22 03:28 42.41595 -123.40318 43194 ft 344 kts 177°
2026-04-22 03:28 42.39167 -123.39995 43210 ft 356 kts 176°
2026-04-22 03:28 42.36665 -123.39661 43236 ft 367 kts 176°
2026-04-22 03:28 42.34084 -123.39320 43278 ft 377 kts 176°
2026-04-22 03:29 42.28734 -123.38612 43520 ft 392 kts 176°
2026-04-22 03:29 42.26012 -123.38253 43869 ft 394 kts 176°
2026-04-22 03:29 42.23266 -123.37894 44152 ft 397 kts 176°
2026-04-22 03:30 42.21436 -123.37654 44334 ft 399 kts 176°
2026-04-22 03:30 42.18658 -123.37288 44624 ft 402 kts 176°
2026-04-22 03:30 42.15857 -123.36918 44829 ft 406 kts 176°
2026-04-22 03:30 42.13050 -123.36551 44983 ft 406 kts 177°
2026-04-22 03:31 42.07285 -123.35799 44981 ft 425 kts 176°
2026-04-22 03:31 42.01281 -123.35008 44979 ft 442 kts 176°
2026-04-22 03:32 41.95042 -123.34199 44990 ft 459 kts 176°
2026-04-22 03:32 41.88580 -123.33354 44987 ft 474 kts 176°
2026-04-22 03:33 41.81909 -123.32487 44995 ft 489 kts 177°
2026-04-22 03:33 41.75086 -123.31602 45005 ft 502 kts 176°
2026-04-22 03:34 41.68026 -123.30687 45017 ft 515 kts 176°
2026-04-22 03:34 41.60817 -123.29756 45021 ft 524 kts 176°
2026-04-22 03:35 41.53529 -123.28815 45018 ft 525 kts 176°
2026-04-22 03:35 41.46299 -123.27886 45023 ft 526 kts 177°
2026-04-22 03:36 41.39017 -123.26951 45005 ft 524 kts 177°
2026-04-22 03:36 41.31748 -123.26021 45002 ft 525 kts 177°
2026-04-22 03:37 41.24465 -123.25091 44993 ft 525 kts 177°
2026-04-22 03:37 41.17195 -123.24163 44992 ft 524 kts 177°
2026-04-22 03:38 41.09932 -123.23240 44994 ft 525 kts 177°
2026-04-22 03:38 41.02711 -123.22324 44980 ft 523 kts 177°
2026-04-22 03:39 40.95467 -123.21407 44969 ft 523 kts 177°
2026-04-22 03:39 40.88211 -123.20491 44964 ft 523 kts 177°
2026-04-22 03:40 40.80965 -123.19576 44959 ft 523 kts 177°
2026-04-22 03:40 40.73704 -123.18665 44955 ft 523 kts 177°
2026-04-22 03:41 40.66455 -123.17753 44955 ft 522 kts 177°
2026-04-22 03:41 40.59213 -123.16848 44953 ft 523 kts 177°
2026-04-22 03:42 40.52023 -123.15948 44947 ft 522 kts 178°
2026-04-22 03:42 40.44759 -123.15044 44958 ft 525 kts 177°
2026-04-22 03:43 40.37487 -123.14138 44964 ft 524 kts 177°
2026-04-22 03:43 40.30215 -123.13237 44969 ft 524 kts 177°
2026-04-22 03:44 40.22966 -123.12336 44968 ft 523 kts 177°
2026-04-22 03:44 40.15710 -123.11442 44968 ft 525 kts 178°
2026-04-22 03:45 40.08439 -123.10542 44968 ft 524 kts 178°
2026-04-22 03:45 40.01166 -123.09650 44969 ft 525 kts 178°
2026-04-22 03:46 39.93901 -123.08756 44970 ft 524 kts 178°
2026-04-22 03:46 39.86683 -123.07873 44979 ft 524 kts 178°
2026-04-22 03:47 39.79423 -123.06984 44978 ft 524 kts 178°
2026-04-22 03:47 39.72146 -123.06096 44987 ft 524 kts 178°
2026-04-22 03:48 39.64889 -123.05212 44989 ft 521 kts 178°
2026-04-22 03:48 39.61297 -123.04772 44456 ft 518 kts 178°
2026-04-22 03:48 39.57727 -123.04339 43842 ft 511 kts 178°
2026-04-22 03:49 39.54201 -123.03912 43253 ft 506 kts 178°
2026-04-22 03:49 39.50717 -123.03490 42655 ft 500 kts 178°
2026-04-22 03:49 39.47317 -123.03078 42079 ft 495 kts 178°
2026-04-22 03:49 39.43911 -123.02665 41507 ft 489 kts 178°
2026-04-22 03:50 39.40534 -123.02257 40910 ft 483 kts 179°
2026-04-22 03:50 39.37210 -123.01857 40373 ft 477 kts 179°
2026-04-22 03:50 39.33919 -123.01460 39816 ft 473 kts 179°
2026-04-22 03:50 39.30658 -123.01066 39262 ft 469 kts 179°
2026-04-22 03:51 39.27431 -123.00676 38717 ft 462 kts 179°
2026-04-22 03:51 39.24241 -123.00292 38124 ft 463 kts 179°
2026-04-22 03:51 39.20954 -122.99911 37563 ft 486 kts 179°
2026-04-22 03:51 39.17500 -122.99504 36984 ft 508 kts 179°
2026-04-22 03:52 39.13991 -122.99070 36382 ft 517 kts 179°
2026-04-22 03:52 39.10356 -122.98621 35758 ft 520 kts 179°
2026-04-22 03:52 39.06743 -122.98193 35138 ft 521 kts 179°
2026-04-22 03:52 39.03217 -122.97777 34509 ft 505 kts 180°
2026-04-22 03:53 38.99794 -122.97356 33949 ft 484 kts 180°
2026-04-22 03:53 38.96489 -122.96958 33355 ft 471 kts 181°
2026-04-22 03:53 38.93232 -122.96583 32803 ft 471 kts 181°
2026-04-22 03:53 38.89938 -122.96203 32238 ft 477 kts 181°
2026-04-22 03:54 38.86626 -122.95678 31657 ft 485 kts 175°
2026-04-22 03:54 38.83316 -122.94712 31106 ft 492 kts 173°
2026-04-22 03:54 38.79966 -122.93657 30521 ft 497 kts 173°
2026-04-22 03:54 38.76604 -122.92639 29905 ft 496 kts 174°
2026-04-22 03:55 38.73293 -122.91688 29296 ft 474 kts 174°
2026-04-22 03:55 38.70166 -122.90769 28759 ft 450 kts 173°
2026-04-22 03:55 38.67169 -122.89870 28243 ft 435 kts 174°
2026-04-22 03:55 38.64233 -122.89005 27753 ft 432 kts 174°
2026-04-22 03:56 38.61328 -122.88163 27252 ft 424 kts 173°
2026-04-22 03:56 38.58473 -122.87320 26751 ft 417 kts 172°
2026-04-22 03:56 38.55664 -122.86484 26268 ft 414 kts 172°
2026-04-22 03:56 38.52870 -122.85662 25786 ft 409 kts 172°
2026-04-22 03:57 38.50111 -122.84854 25298 ft 405 kts 172°
2026-04-22 03:57 38.47402 -122.84059 24827 ft 408 kts 173°
2026-04-22 03:57 38.44648 -122.83250 24346 ft 403 kts 172°
2026-04-22 03:57 38.41930 -122.82445 23874 ft 398 kts 172°
2026-04-22 03:58 38.39256 -122.81661 23363 ft 393 kts 172°
2026-04-22 03:58 38.36601 -122.80886 22877 ft 388 kts 172°
2026-04-22 03:58 38.33977 -122.80118 22425 ft 386 kts 171°
2026-04-22 03:58 38.31374 -122.79355 21957 ft 382 kts 172°
2026-04-22 03:59 38.28765 -122.78593 21519 ft 385 kts 172°
2026-04-22 03:59 38.26176 -122.77834 21072 ft 380 kts 172°
2026-04-22 03:59 38.23609 -122.77083 20624 ft 376 kts 172°
2026-04-22 03:59 38.21069 -122.76343 20182 ft 372 kts 171°
2026-04-22 04:00 38.18554 -122.75612 19745 ft 369 kts 171°
2026-04-22 04:00 38.16071 -122.74889 19312 ft 365 kts 171°
2026-04-22 04:00 38.13607 -122.74173 18884 ft 361 kts 171°
2026-04-22 04:00 38.11189 -122.73474 18399 ft 362 kts 171°
2026-04-22 04:01 38.08751 -122.72767 17920 ft 356 kts 171°
2026-04-22 04:01 38.06338 -122.72064 17468 ft 355 kts 171°
2026-04-22 04:01 38.03935 -122.71368 17052 ft 353 kts 171°
2026-04-22 04:01 38.01543 -122.70678 16624 ft 351 kts 171°
2026-04-22 04:02 37.99164 -122.69989 16218 ft 350 kts 171°
2026-04-22 04:02 37.96802 -122.69298 15797 ft 347 kts 171°
2026-04-22 04:02 37.94447 -122.68618 15388 ft 346 kts 171°
2026-04-22 04:02 37.92107 -122.67945 14984 ft 344 kts 171°
2026-04-22 04:03 37.89836 -122.66993 14525 ft 349 kts 156°
2026-04-22 04:03 37.87872 -122.65172 14161 ft 351 kts 144°
2026-04-22 04:03 37.86010 -122.63168 13754 ft 351 kts 142°
2026-04-22 04:03 37.84162 -122.61172 13326 ft 345 kts 143°
2026-04-22 04:04 37.82344 -122.59253 12917 ft 338 kts 144°
2026-04-22 04:04 37.80528 -122.57348 12514 ft 340 kts 143°
2026-04-22 04:04 37.78731 -122.55441 12114 ft 337 kts 143°
2026-04-22 04:04 37.76945 -122.53542 11722 ft 327 kts 143°
2026-04-22 04:05 37.75274 -122.51769 11347 ft 308 kts 143°
2026-04-22 04:05 37.73661 -122.50069 10991 ft 298 kts 144°
2026-04-22 04:05 37.72099 -122.48418 10950 ft 289 kts 144°
2026-04-22 04:05 37.70542 -122.46761 10950 ft 294 kts 143°
2026-04-22 04:06 37.68972 -122.45087 10958 ft 296 kts 143°
2026-04-22 04:06 37.67392 -122.43406 10953 ft 297 kts 144°
2026-04-22 04:06 37.65810 -122.41726 10961 ft 297 kts 144°
2026-04-22 04:06 37.64226 -122.40045 10956 ft 297 kts 144°
2026-04-22 04:07 37.62655 -122.38386 10952 ft 299 kts 144°
2026-04-22 04:07 37.60956 -122.36894 10947 ft 296 kts 151°
2026-04-22 04:07 37.59189 -122.35523 10659 ft 296 kts 153°
2026-04-22 04:07 37.57462 -122.34207 10228 ft 284 kts 153°
2026-04-22 04:08 37.55792 -122.32939 9829 ft 277 kts 153°
2026-04-22 04:08 37.54149 -122.31695 9416 ft 274 kts 153°
2026-04-22 04:08 37.52529 -122.30433 8997 ft 274 kts 148°
2026-04-22 04:08 37.51310 -122.28552 8606 ft 278 kts 123°
2026-04-22 04:09 37.50440 -122.26431 8504 ft 276 kts 119°
2026-04-22 04:09 37.49591 -122.24258 8400 ft 279 kts 118°
2026-04-22 04:09 37.48736 -122.22064 8236 ft 279 kts 119°
2026-04-22 04:09 37.47863 -122.19831 7784 ft 286 kts 119°
2026-04-22 04:10 37.46988 -122.17600 7330 ft 282 kts 119°
2026-04-22 04:10 37.46125 -122.15388 6956 ft 278 kts 119°
2026-04-22 04:10 37.45516 -122.13142 6936 ft 272 kts 100°
2026-04-22 04:10 37.45359 -122.10717 6976 ft 279 kts 94°
2026-04-22 04:11 37.45268 -122.08265 6965 ft 279 kts 94°
2026-04-22 04:11 37.45180 -122.05799 6969 ft 279 kts 94°
2026-04-22 04:11 37.45099 -122.03360 6932 ft 281 kts 94°
2026-04-22 04:11 37.45014 -122.00900 6654 ft 287 kts 94°
2026-04-22 04:12 37.44928 -121.98403 6172 ft 283 kts 94°
2026-04-22 04:12 37.44843 -121.95977 5843 ft 273 kts 94°
2026-04-22 04:12 37.44770 -121.93565 5357 ft 273 kts 90°
2026-04-22 04:12 37.45348 -121.91380 5290 ft 265 kts 52°
2026-04-22 04:13 37.46808 -121.90062 5289 ft 258 kts 14°
2026-04-22 04:13 37.48444 -121.90103 5293 ft 221 kts 334°
2026-04-22 04:13 37.49537 -121.91193 5353 ft 188 kts 302°
2026-04-22 04:13 37.50061 -121.92590 5454 ft 173 kts 282°
2026-04-22 04:14 37.50125 -121.94135 5231 ft 180 kts 261°
2026-04-22 04:14 37.49761 -121.95670 5007 ft 186 kts 251°
2026-04-22 04:14 37.49665 -121.97260 4967 ft 179 kts 272°
2026-04-22 04:14 37.49755 -121.98862 4975 ft 184 kts 271°
2026-04-22 04:15 37.49833 -122.00454 4977 ft 183 kts 272°
2026-04-22 04:15 37.49922 -122.02051 4972 ft 183 kts 272°
2026-04-22 04:15 37.50014 -122.03657 4875 ft 187 kts 272°
2026-04-22 04:15 37.50107 -122.05310 4608 ft 188 kts 272°
2026-04-22 04:16 37.50201 -122.06947 4401 ft 186 kts 272°
2026-04-22 04:16 37.50542 -122.10096 3954 ft 182 kts 291°
2026-04-22 04:16 37.51160 -122.11489 3796 ft 183 kts 295°
2026-04-22 04:17 37.51775 -122.12878 3603 ft 183 kts 295°
2026-04-22 04:17 37.52373 -122.14299 3389 ft 183 kts 295°
2026-04-22 04:17 37.52965 -122.15713 3188 ft 182 kts 295°
2026-04-22 04:17 37.53557 -122.17125 2983 ft 182 kts 295°
2026-04-22 04:18 37.54147 -122.18534 2777 ft 182 kts 295°
2026-04-22 04:18 37.54537 -122.19463 2641 ft 181 kts 295°
2026-04-22 04:18 37.55123 -122.20864 2439 ft 180 kts 295°
2026-04-22 04:18 37.55709 -122.22264 2239 ft 180 kts 295°
2026-04-22 04:19 37.56476 -122.24093 1968 ft 180 kts 294°
2026-04-22 04:19 37.56882 -122.25070 1826 ft 182 kts 294°
2026-04-22 04:19 37.57411 -122.26300 1740 ft 137 kts 293°
2026-04-22 04:19 37.57828 -122.27295 1551 ft 120 kts 292°
2026-04-22 04:20 37.58201 -122.28187 1395 ft 113 kts 293°
2026-04-22 04:20 37.58567 -122.29057 1238 ft 112 kts 293°
2026-04-22 04:20 37.58933 -122.29931 1098 ft 116 kts 293°
2026-04-22 04:20 37.59320 -122.30860 946 ft 119 kts 294°
2026-04-22 04:21 37.59700 -122.31764 771 ft 115 kts 294°
2026-04-22 04:21 37.60070 -122.32656 623 ft 114 kts 293°
2026-04-22 04:21 37.60433 -122.33522 463 ft 110 kts 293°
2026-04-22 04:21 37.60782 -122.34357 324 ft 108 kts 293°
2026-04-22 04:22 37.61137 -122.35208 159 ft 109 kts 294°
2026-04-22 04:22 37.61489 -122.36042 36 ft 108 kts 295°
2026-04-22 04:22 37.61815 -122.36824 15 ft 92 kts 296°
2026-04-22 04:22 37.62084 -122.37458 13 ft 70 kts 297°
2026-04-22 04:23 37.62263 -122.37878 18 ft 42 kts 297°
2026-04-22 04:23 37.62361 -122.38090 17 ft 20 kts 317°
2026-04-22 04:23 37.62443 -122.38134 16 ft 1 kts 357°
2026-04-22 04:23 37.62444 -122.38134 16 ft 0 kts 358°
2026-04-22 04:24 37.62453 -122.38134 16 ft 2 kts
2026-04-22 04:24 37.62467 -122.38131 16 ft 3 kts 11°
2026-04-22 04:24 37.62488 -122.38126 15 ft 3 kts 11°
2026-04-22 04:24 37.62513 -122.38129 15 ft 4 kts 340°
2026-04-22 04:25 37.62545 -122.38186 14 ft 13 kts 297°
2026-04-22 04:25 37.62597 -122.38312 12 ft 17 kts 298°
2026-04-22 04:25 37.62652 -122.38439 14 ft 15 kts 298°
2026-04-22 04:25 37.62699 -122.38551 15 ft 14 kts 297°
2026-04-22 04:26 37.62732 -122.38631 16 ft 7 kts 300°
2026-04-22 04:26 37.62766 -122.38656 17 ft 5 kts
2026-04-22 04:26 37.62798 -122.38662 17 ft 4 kts 323°
2026-04-22 04:26 37.62816 -122.38658 17 ft 1 kts 27°
2026-04-22 04:27 37.62816 -122.38657 17 ft 0 kts 27°